GFSMA_925_spd_021.txt.gz
Wind_Speed
8 3 2 2 3 2 2 2 3 3 8 7 6 6 7 6 5 7 4 3 2 0 7 12 11 13 13 13 14 14 12 11 12 12 11 12 9 10 9 8 7 6 5
7 6 1 4 2 2 2 5 6 8 6 6 7 7 4 2 2 1 5 2 3 3 4 7 8 12 15 14 15 14 13 12 12 13 13 12 12 11 11 9 8 7 7
6 5 5 2 5 3 2 3 5 5 8 10 8 1 4 3 4 2 1 3 6 4 2 5 9 10 11 14 15 14 15 15 11 11 13 14 13 13 11 11 9 8 8
9 5 4 4 3 1 1 2 4 6 9 6 6 4 6 4 4 5 4 4 5 5 7 5 6 8 8 9 12 13 13 16 16 13 12 12 13 13 13 12 12 11 11
9 6 4 5 7 3 2 2 2 3 7 8 5 11 2 8 6 5 5 5 4 4 8 7 4 3 7 8 8 10 12 14 15 16 15 15 14 15 13 12 13 13 13
12 7 6 2 5 6 3 2 3 3 4 8 8 10 4 2 3 2 12 8 11 10 4 6 3 2 3 5 7 8 9 11 14 15 14 15 16 15 15 16 16 16 15
13 12 11 10 5 2 5 5 2 2 4 6 2 8 3 3 4 16 14 9 13 15 12 12 8 4 3 2 2 5 5 6 9 10 13 14 16 17 17 18 18 18 17
15 11 10 9 10 7 10 9 2 3 2 1 3 2 2 2 1 11 7 7 10 9 12 8 8 4 4 4 3 1 3 4 4 5 8 10 13 14 16 17 18 19 19
15 12 9 8 6 10 14 8 7 4 3 3 5 5 3 0 1 10 11 10 8 4 5 3 4 7 6 2 4 6 4 1 2 4 5 7 9 11 12 12 14 16 19
18 13 12 13 11 9 14 10 9 5 3 4 2 5 4 3 2 1 6 8 8 8 8 6 6 8 6 3 1 3 5 7 6 5 4 4 6 8 9 11 13 14 14
17 16 16 15 16 11 11 13 11 8 5 4 5 1 3 2 2 2 2 2 8 11 10 10 10 9 6 6 3 2 2 5 7 8 6 6 7 7 8 8 9 11 13
20 20 19 19 17 15 15 14 12 12 10 6 4 5 6 0 1 2 1 2 1 12 14 10 11 8 10 9 6 5 5 4 7 7 7 8 9 10 11 11 11 10 10
26 20 25 22 19 18 17 15 14 14 13 13 8 4 1 1 1 1 1 1 3 2 2 4 15 11 12 10 9 8 8 7 7 7 11 13 14 13 14 15 15 14 12
25 26 24 23 21 20 19 16 16 15 14 18 22 21 11 5 2 1 6 5 1 1 1 2 2 7 14 14 12 13 11 12 11 13 13 14 15 14 14 15 16 16 17
24 27 30 28 25 21 23 21 19 19 18 15 15 13 15 12 5 2 3 7 5 2 2 3 3 2 5 13 10 11 11 13 14 17 17 18 17 18 19 19 18 18 18
23 31 34 32 28 24 24 24 23 19 20 22 19 16 12 12 7 5 2 6 6 9 3 5 5 2 2 5 9 13 14 17 19 18 22 23 24 24 23 24 24 23 22
27 23 36 35 32 29 28 28 26 24 25 24 22 20 19 17 15 14 8 5 4 5 6 8 9 7 7 12 14 15 17 18 19 21 22 24 22 25 26 27 25 23 23
31 32 34 37 35 33 31 31 30 27 28 27 25 22 19 16 17 14 13 10 8 9 8 9 12 13 13 14 18 18 19 19 20 20 22 23 25 28 29 23 26 30 27
38 34 36 39 39 35 33 34 33 30 28 27 30 25 23 21 20 18 18 15 13 10 10 8 12 13 16 18 22 22 16 11 10 15 17 19 19 21 19 19 18 20 22
41 41 39 41 41 38 36 35 34 32 33 28 26 27 26 24 21 19 16 17 15 15 14 14 18 17 16 15 8 8 17 18 18 14 16 16 18 22 20 18 19 19 21
40 42 40 39 39 37 37 38 40 37 34 29 26 22 26 24 21 20 17 20 17 15 15 17 18 20 20 17 14 12 16 17 19 23 20 22 21 24 29 33 31 28 24
35 39 39 38 37 38 39 38 40 37 33 31 27 24 24 23 22 18 20 24 18 8 15 23 23 16 17 18 20 20 20 17 6 22 20 29 25 22 23 22 23 26 24
33 36 36 37 38 38 38 35 33 32 31 28 26 26 24 22 21 18 18 17 11 13 18 24 24 22 21 22 23 21 22 20 22 29 25 22 25 26 23 25 27 25 26
35 33 35 36 36 34 35 35 31 28 27 24 22 23 24 23 19 19 19 16 16 23 20 22 20 23 22 22 25 25 23 23 27 28 26 13 20 24 18 17 23 30 31
29 28 33 32 32 32 30 29 27 27 27 23 21 23 25 24 19 20 18 21 22 23 20 18 17 18 19 18 21 22 23 23 14 21 26 22 23 20 25 26 23 25 28
27 30 27 29 33 32 28 28 25 27 27 27 29 25 23 25 23 22 20 19 20 22 18 14 13 13 14 16 19 23 27 20 18 9 11 16 24 26 12 23 26 31 31

GFSMA_925_spd_024.txt.gz
Wind_Speed
10 8 4 4 3 3 3 1 3 0 3 3 8 4 4 6 7 11 9 7 6 6 10 11 15 16 16 15 15 14 13 12 14 13 12 12 10 10 9 8 7 7 7
9 8 6 3 2 4 4 2 1 2 1 3 3 2 4 4 8 8 9 8 6 3 6 10 12 14 15 15 16 16 15 14 13 13 13 12 12 9 11 9 10 10 8
11 9 7 4 2 3 7 3 0 1 3 4 4 3 3 2 7 6 6 7 7 6 3 7 9 8 11 14 16 17 17 14 12 13 13 13 13 13 13 12 11 10 9
12 8 7 7 4 3 3 2 2 1 4 3 3 4 7 3 9 7 6 4 7 9 7 2 5 7 7 10 12 15 15 16 16 13 12 14 16 14 14 13 12 12 11
13 10 7 8 6 8 5 4 2 1 2 1 1 3 1 8 7 8 6 7 5 4 10 6 4 4 6 8 9 12 14 13 16 17 15 13 13 13 13 13 14 13 13
17 12 11 9 9 8 6 5 6 0 0 5 1 1 3 5 7 9 11 9 10 10 8 8 7 6 4 6 7 9 10 11 14 14 16 16 17 16 15 16 15 15 14
17 16 13 9 9 9 7 7 5 2 1 3 2 4 5 4 7 14 13 12 12 12 11 8 6 5 5 4 4 4 7 8 9 10 12 13 14 15 15 16 16 17 17
20 19 17 15 13 9 7 9 4 5 3 1 2 2 3 4 8 11 11 13 13 9 11 7 5 4 6 5 3 1 3 5 4 4 7 9 11 12 13 15 16 16 17
23 20 17 15 14 12 13 12 7 8 5 4 3 3 2 2 1 6 9 13 13 9 7 6 4 6 7 4 4 4 3 2 1 2 3 5 6 8 8 10 9 10 13
25 20 18 14 13 15 16 14 10 10 8 8 6 4 4 5 3 0 3 7 7 7 7 6 5 5 6 4 2 4 6 6 6 5 4 3 3 4 6 9 9 10 10
25 21 19 17 16 15 18 16 13 12 11 9 9 10 10 7 4 3 2 3 8 9 10 8 11 7 7 6 2 2 2 2 5 6 6 7 6 6 6 6 7 8 9
27 24 22 19 19 17 19 16 15 14 13 11 8 12 8 4 5 4 2 1 3 7 14 12 14 15 12 10 7 6 4 3 3 3 6 9 9 9 9 9 9 9 10
30 28 27 25 23 21 19 18 18 15 16 14 10 9 6 5 4 6 6 2 2 1 2 13 17 18 18 16 12 11 8 7 6 8 8 9 9 9 9 10 11 13 13
35 30 30 29 25 24 21 21 18 16 15 16 14 11 8 6 4 7 6 6 0 1 4 6 4 14 19 20 17 14 12 10 10 11 12 12 10 11 12 13 13 13 14
35 32 31 30 29 25 23 23 20 17 15 15 17 12 12 10 8 4 5 8 6 2 3 3 2 2 6 16 16 15 13 13 14 15 14 15 15 16 18 18 19 20 19
33 34 32 32 30 26 25 25 22 20 18 19 16 15 15 14 12 8 7 10 9 7 2 5 1 0 3 3 7 10 12 13 15 18 19 18 17 19 21 21 22 23 24
36 35 35 34 33 31 28 29 27 24 21 22 21 21 18 16 14 12 8 4 7 8 5 3 7 7 7 10 10 12 15 17 18 19 19 20 19 22 22 22 22 21 23
38 35 35 38 38 36 32 32 31 30 28 27 25 22 22 19 20 18 14 13 10 9 6 7 8 10 10 11 13 17 17 15 17 16 18 16 18 20 17 18 15 16 17
40 37 36 36 40 39 37 34 34 34 33 29 28 25 24 21 18 17 16 14 13 10 6 7 9 13 16 16 17 14 14 9 8 14 17 16 15 17 15 18 19 18 16
42 42 38 36 37 40 39 38 36 36 34 29 28 27 27 24 23 22 18 17 14 11 15 8 16 17 19 18 19 18 14 17 21 21 16 15 17 20 23 25 27 26 24
42 42 41 38 37 39 42 42 39 38 37 33 31 28 23 23 24 23 19 19 12 16 16 7 14 22 22 24 17 12 13 17 19 18 14 15 20 19 18 16 17 17 18
40 41 40 40 40 40 41 42 40 40 37 35 33 31 25 22 21 24 23 20 17 19 14 6 15 21 25 23 17 16 15 13 4 13 9 22 20 19 17 18 18 18 18
35 38 39 38 40 41 42 41 39 39 34 31 29 30 24 23 22 23 23 22 20 18 15 12 24 24 29 27 19 19 20 19 21 23 25 25 28 25 20 19 18 16 22
35 36 37 39 40 42 41 39 37 36 32 30 31 30 27 24 23 22 20 20 17 19 18 19 24 27 28 23 20 20 20 20 21 23 25 13 25 23 21 20 21 23 23
31 33 38 39 40 41 39 38 33 31 28 26 25 25 24 21 21 21 21 20 22 25 22 20 20 18 17 17 16 16 16 17 13 22 25 16 15 20 23 25 22 21 22
34 32 33 36 39 38 37 35 32 31 26 24 23 22 22 22 21 20 22 22 20 24 19 15 13 13 12 14 14 16 17 17 18 5 11 11 19 22 10 17 19 20 20

GFSMA_925_spd_030.txt.gz
Wind_Speed
6 6 6 5 5 2 3 4 3 2 3 6 4 2 2 2 4 4 3 4 2 3 5 9 10 9 9 9 9 9 8 9 8 6 7 7 6 6 5 4 4 4 4
7 8 8 7 8 6 4 1 2 2 1 2 1 0 1 3 6 5 4 5 3 1 2 5 8 12 10 10 10 10 9 9 9 9 8 8 7 6 5 6 5 6 6
11 9 10 8 7 6 4 4 1 2 3 1 5 4 3 4 5 5 5 6 4 3 1 4 5 7 10 11 11 12 13 11 9 9 10 10 10 10 8 7 8 6 8
13 13 12 9 7 5 5 5 3 4 2 3 3 2 4 6 1 3 4 6 6 5 2 0 2 3 5 7 10 13 14 11 11 10 10 12 12 11 10 11 10 10 10
13 15 14 10 8 6 5 4 3 2 2 4 2 1 3 2 8 5 3 3 4 5 5 1 1 2 4 6 5 8 11 11 13 13 13 12 11 12 12 13 12 12 12
19 17 14 11 10 8 7 5 3 3 1 3 1 2 4 4 7 5 5 3 3 4 6 5 3 3 3 4 7 5 6 9 13 15 14 15 14 13 11 13 13 13 13
20 20 17 13 11 10 8 6 5 4 2 1 1 4 6 3 3 5 6 4 1 3 4 3 3 4 1 1 1 3 4 5 7 8 9 12 12 13 14 15 15 16 15
21 22 21 16 13 11 11 9 7 5 5 3 2 3 2 3 4 3 5 5 5 5 3 1 1 1 2 3 3 1 1 1 0 1 3 5 8 10 12 13 13 14 15
18 23 23 20 15 13 13 11 10 8 7 5 4 3 2 2 1 1 3 5 5 5 5 3 4 4 4 4 4 5 5 5 4 3 3 4 3 5 6 7 7 8 9
21 22 23 21 18 16 15 14 13 10 9 8 3 3 2 4 2 0 2 4 5 6 5 4 3 4 4 5 5 7 8 8 9 10 9 8 6 5 5 5 5 5 6
23 21 24 23 21 18 17 17 17 14 12 10 8 4 4 3 5 3 2 4 8 9 8 7 6 5 5 4 4 5 6 6 6 7 8 8 8 7 6 6 7 7 7
23 22 19 22 22 19 18 19 19 15 13 13 11 8 7 4 5 4 2 3 6 7 11 12 11 9 8 7 6 5 4 3 1 2 4 6 7 7 7 7 7 8 8
26 23 20 22 23 22 20 19 20 18 15 15 12 10 10 7 5 5 4 3 2 4 3 10 14 11 12 13 12 10 9 7 6 6 6 6 7 7 8 8 9 9 10
31 29 26 26 27 24 21 20 21 19 17 15 14 12 10 9 8 7 4 6 1 1 2 4 5 12 13 16 16 13 14 13 11 12 11 10 10 10 11 12 13 13 14
30 28 28 28 30 28 25 23 23 22 19 17 16 15 13 11 9 8 8 7 5 2 2 4 5 3 3 5 11 13 14 14 15 15 15 15 15 17 17 17 17 16 17
33 30 28 27 31 31 28 26 26 24 22 20 18 17 16 14 13 11 9 9 9 8 2 5 5 3 3 1 1 3 5 9 11 14 15 16 17 18 18 18 17 17 18
36 32 32 28 30 33 31 29 29 26 25 22 19 18 17 17 15 14 12 10 10 8 4 4 7 7 3 1 3 4 8 8 12 13 14 13 13 13 14 14 14 14 14
37 33 34 33 31 34 34 33 33 30 28 26 24 21 20 18 16 14 14 12 10 9 8 9 7 6 6 4 4 4 3 8 11 10 9 8 12 15 14 13 13 14 16
38 37 35 35 34 36 36 35 35 34 30 29 28 26 24 23 21 18 16 16 14 13 13 12 11 10 8 5 3 4 9 11 10 9 11 13 12 11 10 12 15 18 18
42 40 42 40 37 37 37 36 37 37 34 31 30 29 27 27 25 21 18 16 16 15 15 14 12 10 9 8 7 9 11 12 14 11 14 13 9 9 12 13 13 15 15
46 45 44 44 43 40 40 39 38 39 37 35 33 31 30 27 24 23 21 19 18 18 18 17 13 8 9 10 9 8 11 14 17 17 15 11 10 13 16 14 16 16 16
42 42 44 45 44 45 44 42 40 39 39 38 37 35 34 26 26 24 24 22 21 20 20 20 17 15 17 15 12 11 7 8 5 10 9 14 17 18 19 19 16 17 17
41 42 41 41 44 46 45 43 40 38 38 37 37 37 33 27 27 25 24 21 20 20 21 21 21 17 17 16 11 10 10 11 11 16 15 13 17 19 18 15 14 17 19
41 40 41 43 40 44 45 44 41 40 39 36 35 34 29 28 29 27 24 23 21 21 21 21 20 17 14 14 13 13 11 12 14 16 15 7 17 17 15 17 17 18 20
37 40 36 37 41 40 45 45 42 41 38 36 33 29 25 25 25 25 25 24 22 19 17 18 16 15 17 15 14 12 11 8 6 9 12 6 10 12 17 19 14 13 15
34 31 33 37 42 43 44 43 43 41 36 35 34 30 26 25 23 21 21 24 22 19 15 14 15 15 14 12 10 11 11 10 6 4 5 6 11 10 7 15 12 18 15

GFSMA_925_spd_033.txt.gz
Wind_Speed
3 2 2 2 3 3 3 2 2 2 4 4 3 3 2 2 2 1 1 2 2 1 3 8 10 8 8 9 9 8 8 8 8 6 6 6 7 6 5 4 4 3 2
5 3 5 6 5 7 5 2 2 1 3 2 2 2 1 1 0 2 2 2 3 2 0 3 7 8 8 8 8 9 8 8 8 8 7 8 8 6 5 5 5 5 5
8 6 7 6 6 6 4 2 2 3 3 1 6 4 3 0 2 2 3 3 1 1 3 1 3 6 9 9 9 8 9 9 8 8 9 8 9 9 8 7 7 6 5
11 10 9 7 6 6 5 4 2 3 2 1 3 1 1 3 1 3 3 2 2 1 2 2 2 2 4 6 9 9 9 10 10 8 8 9 10 11 11 10 9 8 9
14 11 10 8 8 6 4 2 2 1 1 2 1 2 2 0 5 3 2 1 1 2 2 1 2 2 0 2 3 4 9 10 11 10 10 11 11 11 11 12 12 11 10
17 15 11 12 8 6 6 3 2 1 1 2 3 3 5 4 4 2 2 2 1 1 2 2 2 1 0 1 3 4 4 7 9 10 10 12 14 13 12 11 12 12 12
16 17 13 13 10 8 6 5 3 3 1 1 2 4 5 5 5 3 3 4 4 5 4 2 2 2 2 2 1 1 3 4 4 5 7 9 10 12 12 12 13 16 14
16 17 17 13 11 8 8 7 6 3 1 1 1 2 2 3 4 4 3 4 5 5 5 4 4 4 5 4 3 2 2 2 2 1 2 2 5 7 8 8 9 11 12
17 17 19 17 14 11 8 9 8 6 2 2 2 1 2 2 3 1 1 2 3 4 5 5 5 5 5 5 5 6 7 6 6 6 7 6 4 4 4 4 4 5 6
19 17 19 19 18 12 10 9 10 7 4 5 4 2 2 1 3 4 4 3 3 4 3 3 4 4 5 5 6 7 8 10 11 10 10 9 8 6 6 6 6 6 6
24 21 20 18 19 17 13 12 11 11 7 5 5 5 3 2 3 3 3 6 6 6 5 4 4 4 4 5 4 5 8 7 6 6 7 7 8 8 7 7 7 7 7
21 26 21 19 21 18 16 13 13 13 11 7 6 7 6 4 6 5 4 5 8 5 7 7 8 7 7 7 7 6 6 5 3 1 2 4 4 5 6 6 5 6 6
21 21 23 21 18 20 19 15 14 15 14 10 11 8 8 7 5 6 4 3 6 7 5 8 10 10 9 9 9 11 10 9 7 5 4 5 6 6 6 7 8 8 9
22 21 24 22 19 20 20 17 14 15 15 12 13 12 9 8 6 6 5 5 3 5 5 6 4 9 10 11 14 16 14 14 12 11 10 10 10 10 11 12 12 12 13
22 23 25 25 22 21 22 19 15 18 17 15 14 14 11 9 8 8 6 6 6 4 4 4 5 7 7 7 8 11 12 14 16 15 14 14 14 13 14 16 16 17 16
30 24 26 24 24 22 23 22 18 18 19 16 14 14 15 12 12 10 9 9 9 9 5 6 6 6 6 5 4 5 7 9 10 11 13 15 16 17 17 17 17 18 17
35 32 30 25 25 23 23 25 23 20 22 20 19 17 17 15 13 12 11 10 10 10 10 7 7 8 8 6 5 6 6 9 9 13 14 15 16 16 15 13 14 14 14
37 36 34 29 26 25 25 27 26 23 25 22 21 19 19 17 17 14 14 14 13 12 11 9 6 8 9 8 7 7 6 6 10 12 12 12 10 13 16 15 14 13 15
37 34 33 33 28 27 27 27 29 29 28 26 24 23 22 20 18 18 17 15 14 12 11 10 10 9 8 8 7 8 8 8 9 10 10 10 13 16 15 12 12 15 15
35 37 38 36 32 30 30 29 29 29 27 28 27 26 24 24 23 22 19 18 16 16 14 13 12 11 12 9 10 11 13 10 8 9 11 11 13 14 12 13 16 16 17
40 40 39 37 34 31 32 32 30 30 29 28 27 29 28 27 28 27 25 21 19 18 16 15 14 13 13 13 13 12 12 11 10 9 11 9 8 9 12 16 17 17 18
38 37 37 39 38 37 37 39 38 33 32 31 30 29 30 32 34 30 29 28 25 22 20 17 16 15 16 14 11 10 9 10 11 5 7 9 11 12 14 16 18 18 16
37 38 38 39 40 42 43 47 45 37 33 35 33 29 27 27 34 30 32 31 29 28 24 20 18 17 14 12 9 7 8 10 13 9 7 14 12 14 14 14 14 17 18
39 39 38 39 39 42 46 50 48 44 37 36 34 33 31 28 30 33 25 24 26 28 28 23 20 18 14 8 9 8 9 9 9 10 9 10 13 13 13 15 17 18 16
36 37 34 34 39 40 44 48 47 43 37 33 32 31 30 28 32 32 32 24 23 22 23 23 21 17 15 13 11 9 10 8 10 9 6 9 10 12 16 18 14 14 15
35 33 34 36 38 38 40 46 46 39 33 32 30 31 37 35 31 31 32 25 24 23 20 20 21 20 17 16 15 13 8 9 9 8 3 6 11 13 11 15 11 17 15

GFSMA_925_spd_036.txt.gz
Wind_Speed
3 3 3 1 1 2 2 3 3 3 3 5 4 4 3 4 4 4 7 6 6 3 3 8 8 7 8 7 7 6 5 8 7 6 5 5 5 4 4 4 3 3 3
3 2 3 3 2 2 3 1 1 2 3 1 2 4 2 4 2 2 5 7 5 5 3 4 8 9 9 8 8 8 7 6 7 6 6 6 7 7 6 5 5 5 5
6 4 2 3 2 2 1 1 1 1 0 1 5 3 6 5 4 2 3 6 6 6 4 3 4 7 9 8 9 8 9 10 8 6 8 7 8 8 8 7 7 7 6
8 4 3 2 1 1 1 1 1 3 3 2 5 1 1 3 4 5 6 3 2 6 6 5 4 4 5 8 9 10 10 10 10 8 7 9 8 8 9 9 8 8 10
9 7 5 3 2 1 1 1 2 3 3 2 3 2 3 2 3 10 7 4 4 2 5 5 4 4 3 3 4 7 10 11 11 10 9 10 10 9 8 8 9 10 11
11 10 7 5 3 2 0 1 2 3 3 3 2 5 6 6 4 6 8 5 4 5 5 1 2 5 2 5 6 5 5 7 8 10 11 11 10 10 9 8 8 9 11
11 11 10 7 4 3 2 0 1 2 2 3 5 7 6 7 4 6 3 6 5 3 3 2 1 1 2 2 2 3 4 4 4 5 6 7 7 7 8 9 10 10 11
13 12 11 8 6 4 3 1 1 1 1 1 0 1 5 9 7 6 1 3 4 5 5 3 3 2 2 5 1 2 2 2 2 2 2 1 2 3 4 7 9 10 11
13 12 12 11 8 5 3 2 3 2 2 3 3 3 2 3 8 7 6 3 4 4 4 5 5 5 5 4 5 4 6 6 6 6 6 6 5 4 4 1 1 1 1
14 13 12 10 10 8 5 3 4 4 3 4 5 6 4 7 3 6 7 7 6 5 4 3 4 5 5 5 7 7 8 10 9 8 8 8 8 6 5 3 2 1 1
17 15 13 12 11 11 8 6 6 7 6 4 5 5 5 6 6 6 4 10 9 8 7 6 4 4 4 4 5 6 10 9 7 5 6 7 6 5 5 4 4 4 4
19 19 17 14 13 12 11 10 9 9 9 7 7 6 6 6 7 8 6 4 6 10 9 8 8 7 7 8 7 9 9 8 6 4 2 1 1 2 2 2 2 3 4
19 20 20 18 17 15 14 12 11 11 12 10 10 9 8 7 5 7 6 3 5 6 7 9 10 11 11 11 10 11 11 10 8 6 5 4 4 5 6 6 8 8 9
19 17 20 21 19 17 16 15 13 12 13 12 11 12 9 9 8 7 7 6 4 6 7 8 6 9 11 11 11 12 14 14 14 12 12 11 11 11 11 11 12 13 14
20 20 21 22 20 19 17 16 15 14 15 14 13 13 14 11 10 10 9 9 9 5 5 9 8 6 6 8 9 9 11 13 15 17 16 15 14 15 16 16 16 17 17
26 21 23 23 22 20 19 19 17 17 17 17 17 16 15 14 12 12 11 11 10 10 6 4 6 4 6 5 6 6 8 13 13 12 13 14 16 17 17 17 17 16 16
28 28 26 24 24 23 23 22 21 19 21 20 19 19 18 16 16 15 14 13 12 12 11 8 7 6 7 7 7 7 8 9 11 10 13 16 17 17 16 16 16 16 16
32 31 30 27 26 25 25 25 25 24 24 23 23 21 20 18 19 17 16 15 14 12 13 10 8 8 9 11 11 11 10 11 10 10 13 16 16 13 14 16 18 17 16
35 33 32 32 30 29 28 28 27 27 26 26 25 25 23 22 22 20 20 17 16 15 14 14 10 10 10 12 11 10 10 10 11 13 16 13 14 15 16 15 15 14 16
37 36 36 34 34 33 31 31 30 29 29 28 28 27 26 26 25 22 20 19 16 14 13 13 14 14 12 12 12 13 13 13 12 11 13 16 14 15 18 15 16 17 18
38 38 37 36 36 35 35 35 34 32 31 31 29 30 28 27 27 25 23 22 19 17 16 16 17 15 14 14 14 13 13 13 10 11 12 12 12 11 13 14 16 19 12
38 38 37 38 38 38 38 40 38 35 34 32 32 30 29 29 30 32 31 23 23 22 21 18 18 17 14 14 14 14 14 12 10 0 10 12 10 14 14 17 13 12 16
38 39 39 39 40 42 43 46 48 40 34 33 32 30 28 28 30 27 33 32 30 29 25 21 21 18 15 16 14 11 13 12 12 8 10 13 13 16 16 15 10 14 18
38 38 39 40 40 42 45 47 48 45 34 32 33 32 30 29 28 28 26 28 30 29 31 29 24 20 19 15 15 13 12 11 13 12 10 12 13 14 13 14 14 12 13
32 34 34 34 39 40 45 47 49 41 39 37 35 35 34 33 32 33 26 26 26 30 27 29 27 22 20 17 15 13 14 12 10 13 9 10 12 11 13 16 13 10 13
32 32 34 36 37 38 41 48 51 42 37 37 37 34 39 37 35 36 36 30 28 25 24 20 26 27 22 20 20 17 13 14 13 11 4 7 13 12 12 13 10 16 14